Location: Central Coast
(33.3208°S, 151.2336°E)
Time: 16:28:21
(UTC+11:00)

Tiangong 2 - Pass Details

Date: 12 October 2017
Orbit: 386 x 392 km, 42.8° (Epoch: 24 November)

Event Time Altitude Azimuth Distance (km) Brightness Sun altitude
Rises 21:05:32 0° 237° (WSW) 2,298 6.4 -24.5°
Reaches altitude 10° 21:07:41 10° 230° (SW) 1,436 5.0 -24.9°
Enters shadow 21:09:20 26° 215° (SW) 827 3.3 -25.2°
